Location: Carrières
(48.9495°N, 2.0407°E)
Time: 13:18:17
(UTC+00:00)

NOAA 6 - Pass Details

Date: 28 January 2023
Orbit: 771 x 786 km, 98.7° (Epoch: 21 March)

Event Time Altitude Azimuth Distance (km) Brightness Sun altitude
Rises 17:44:49 0° 169° (S) 3,244 7.3 -10.4°
Reaches altitude 10° 17:47:08 10° 171° (S) 2,323 6.6 -10.8°
Maximum altitude 17:52:15 73° 256° (WSW) 819 4.3 -11.6°
Drops below altitude 10° 17:57:26 10° 342° (NNW) 2,351 6.6 -12.4°
Sets 17:59:47 0° 344° (NNW) 3,286 7.3 -12.8°
